SCP
2 2 2 2 2 1 1 1 1 1 1 1 1 1 1 1 1 0 0 0 1 0 0 0 1 1 1 1 0 0 0 0 0 0 0 0 0 0 0 0 0 0 0
2 2 2 2 2 2 1 1 1 1 1 1 1 1 1 1 1 0 0 0 1 1 0 0 1 1 1 1 0 0 0 0 0 0 0 0 0 0 0 0 0 0 0
2 2 2 2 2 2 1 1 1 1 1 1 1 1 1 1 1 1 1 1 1 1 1 1 1 1 1 0 0 0 0 0 0 0 0 0 0 0 0 0 0 0 1
2 2 2 2 2 2 2 1 1 1 1 1 1 1 1 1 1 1 1 1 1 1 1 1 1 1 1 0 0 0 0 0 0 0 0 0 0 0 0 0 0 1 1
2 2 2 2 2 2 2 2 1 1 1 1 1 1 1 1 1 1 1 1 1 2 2 2 1 1 1 1 1 0 0 0 0 0 0 0 0 0 0 0 1 1 1
3 2 2 2 2 2 2 2 2 1 1 1 1 1 1 1 1 1 1 2 2 2 2 2 1 1 1 1 1 1 1 0 0 0 0 0 0 0 0 0 1 1 1
3 3 2 2 2 2 2 2 2 1 1 1 1 1 1 1 1 1 1 2 2 2 1 1 1 1 1 1 1 0 1 0 0 0 0 0 0 0 1 1 1 1 1
4 3 3 2 2 2 2 2 2 1 1 1 1 1 1 1 1 1 1 2 1 1 1 1 1 1 1 0 0 0 0 0 0 0 0 0 0 1 1 1 1 1 1
5 4 3 3 2 2 2 2 1 1 1 1 1 1 1 1 1 1 1 1 1 1 1 1 1 1 0 0 0 0 0 0 0 0 0 0 1 1 1 1 1 1 1
5 4 3 3 2 2 2 1 1 1 1 1 1 1 1 1 1 1 1 1 1 1 1 1 1 1 0 0 0 0 0 0 0 0 0 0 1 1 1 1 1 1 1
5 4 3 3 3 2 2 1 1 2 2 1 1 1 1 1 1 1 1 1 1 1 1 1 1 1 0 0 0 0 0 0 0 0 0 0 1 1 1 2 2 1 1
5 4 3 3 3 3 2 2 2 2 2 2 2 1 1 1 1 1 1 1 1 1 1 1 1 1 1 0 0 0 0 0 0 0 0 1 1 1 1 2 2 1 1
4 4 3 3 4 3 2 2 2 2 2 2 2 1 1 1 1 1 1 1 1 1 1 1 1 1 1 0 0 0 0 0 0 0 0 1 1 1 2 2 1 1 1
4 4 4 4 4 4 3 3 3 2 2 2 1 1 1 1 1 1 1 1 1 1 1 1 1 1 1 1 0 0 0 0 0 0 0 1 1 1 2 2 1 1 1
3 3 4 4 5 5 4 3 3 3 2 2 1 1 1 1 1 1 1 1 1 1 1 1 1 1 1 1 1 0 0 0 0 0 0 1 1 1 2 2 2 1 1
2 3 4 4 5 5 4 4 3 3 3 2 1 1 1 1 2 2 1 1 1 1 1 1 1 1 1 1 1 0 0 0 0 0 0 0 1 1 2 2 2 2 1
2 2 3 4 4 5 5 4 4 4 3 2 2 1 1 1 2 2 2 1 1 1 1 1 1 1 1 1 1 1 0 0 0 0 0 0 0 1 1 2 2 2 2
1 2 3 4 4 4 5 5 5 4 3 2 2 1 1 1 2 2 2 1 1 1 1 1 1 1 1 1 1 1 1 1 1 0 0 1 1 0 1 1 1 2 2
1 1 2 3 3 4 5 6 5 4 2 1 1 1 1 2 2 2 2 2 1 1 1 0 0 1 1 1 0 0 1 1 1 1 1 1 1 1 0 0 1 1 1
0 1 2 2 3 4 5 6 5 4 2 1 1 1 2 2 1 1 2 2 1 1 1 0 0 0 0 0 0 0 0 0 1 1 1 1 1 1 1 0 0 1 1
0 0 1 2 3 4 5 6 5 3 1 1 1 1 2 1 1 1 2 2 1 1 1 0 0 0 0 0 0 1 1 0 0 0 1 1 1 1 1 1 0 0 0
0 0 0 1 2 4 5 5 4 3 1 1 1 1 1 1 1 1 1 1 1 1 1 0 0 0 0 0 0 0 1 0 0 0 0 1 1 1 1 1 1 1 1
0 0 0 1 2 4 5 5 4 2 1 0 0 1 1 1 1 1 1 1 1 1 1 0 0 0 0 0 0 0 0 0 0 0 0 0 1 1 1 1 1 1 1
0 0 0 1 2 3 4 4 3 2 1 0 0 0 0 1 1 1 1 1 1 1 1 1 0 0 0 0 0 0 0 0 0 0 0 0 0 1 1 1 1 1 1
0 0 0 1 2 3 4 3 2 1 1 0 0 0 0 0 1 1 1 1 1 1 1 1 0 0 0 0 0 0 0 0 0 0 0 0 0 1 1 1 1 1 1
0 0 0 0 1 3 3 3 2 1 1 0 0 0 0 0 0 1 1 1 1 1 1 1 1 0 0 0 0 0 0 0 0 0 0 0 0 1 1 1 1 1 1
Wind_Speed
5 5 8 9 9 9 8 8 8 8 8 9 9 9 9 8 9 9 9 9 9 9 9 9 10 10 10 11 11 11 11 11 11 11 11 10 10 11 11 10 10 9 13
5 6 8 10 9 10 9 8 8 8 8 8 8 8 8 8 8 8 8 8 8 9 9 9 9 10 10 10 10 9 9 9 9 8 8 7 8 10 11 10 10 8 12
6 7 7 10 10 10 10 9 8 8 8 8 8 8 8 8 7 8 8 8 8 8 8 9 9 9 10 9 9 8 8 7 5 5 5 3 5 9 10 10 10 10 11
7 7 7 11 11 10 10 9 8 8 8 8 8 8 8 8 7 7 7 8 8 9 9 9 9 9 9 8 8 7 6 4 3 2 2 3 4 8 9 9 10 10 10
7 8 8 12 12 11 11 10 9 9 8 8 8 7 7 8 8 8 7 8 8 9 9 8 9 9 8 8 7 6 5 4 4 2 2 4 4 8 8 8 9 9 9
8 8 8 12 12 12 11 11 10 9 8 8 8 7 8 8 8 8 8 8 8 8 9 8 8 8 8 7 6 5 5 5 4 1 3 3 3 7 8 8 8 8 8
7 7 8 12 12 12 12 11 10 10 9 7 8 7 7 7 8 8 8 9 9 8 8 8 8 7 7 6 6 5 6 6 3 2 3 3 4 7 7 7 7 7 7
7 7 6 10 11 11 11 11 10 10 9 8 7 7 7 7 7 7 7 8 8 8 7 7 7 7 6 5 5 6 6 6 3 3 3 3 5 7 6 6 7 7 7
8 7 6 6 7 9 10 10 10 9 9 8 6 6 6 6 6 6 7 7 6 7 7 6 6 5 5 4 5 6 6 6 3 2 3 3 4 6 6 6 7 7 7
8 7 6 6 6 5 5 8 9 9 8 8 7 6 5 5 5 6 5 6 5 6 6 6 5 4 4 3 4 5 6 4 2 2 2 3 5 5 5 5 6 6 6
8 7 7 7 6 5 4 6 6 7 7 7 6 6 4 2 2 3 4 5 5 5 5 5 4 4 3 3 3 4 4 2 2 1 2 3 5 5 4 5 5 5 5
8 8 7 7 6 6 5 4 3 4 4 4 3 3 2 2 2 3 3 4 4 4 3 4 4 3 2 1 2 3 2 2 1 1 2 4 4 3 3 3 4 4 4
6 7 8 7 7 6 4 3 3 2 3 3 5 4 3 2 2 2 1 2 2 2 1 1 1 1 2 2 1 2 2 2 1 1 1 3 3 2 2 3 3 3 3
7 7 7 7 7 6 5 3 3 3 3 3 4 5 3 2 2 2 1 1 0 0 1 1 0 1 1 2 1 2 2 1 1 1 1 2 2 2 2 3 3 3 4
7 7 7 7 7 6 5 4 4 3 3 3 3 4 4 3 2 1 1 1 1 1 1 1 1 1 1 1 1 1 1 1 1 1 1 1 1 1 2 3 3 3 4
7 7 7 7 6 6 5 4 4 3 3 3 3 4 5 3 2 1 1 1 1 1 1 1 1 1 1 1 1 1 1 1 1 1 0 0 0 1 2 3 3 3 4
6 7 7 7 7 6 6 5 4 3 3 3 3 4 5 4 3 2 1 1 2 2 1 1 1 1 1 1 2 2 1 1 1 1 1 0 1 1 2 3 4 4 4
7 6 7 7 7 7 6 5 4 4 3 3 3 3 5 5 4 3 1 1 2 1 1 1 1 1 1 1 1 2 2 1 2 1 1 1 1 1 1 2 3 4 4
6 6 7 7 7 7 6 4 4 4 3 3 3 3 4 5 5 3 2 2 2 1 1 2 2 1 1 2 2 2 1 1 2 2 1 0 0 1 1 2 2 3 4
6 6 6 7 7 6 5 4 3 3 3 3 3 4 5 4 5 4 2 2 2 1 2 2 2 2 1 1 2 2 2 2 2 2 1 1 0 0 1 1 1 1 3
6 7 7 7 7 6 5 5 4 4 3 3 3 4 5 5 5 4 4 2 1 1 1 2 1 2 1 1 1 2 3 3 2 1 1 0 0 1 1 1 1 1 1
6 7 7 7 6 6 5 4 3 3 3 3 3 4 5 5 4 4 4 2 1 1 1 1 1 1 2 1 1 1 1 2 2 2 1 1 1 0 1 1 1 1 1
6 6 6 6 6 6 6 4 4 3 3 3 5 4 5 5 5 4 4 3 2 1 1 1 1 1 2 2 1 1 1 2 2 2 2 2 1 1 1 1 1 1 1
5 5 6 6 6 6 6 5 5 4 4 5 4 4 5 5 5 5 5 4 2 2 2 2 1 1 2 2 3 2 2 1 1 2 2 2 2 2 2 2 1 1 1
5 5 5 6 6 6 6 6 5 4 4 4 5 5 5 4 5 5 5 4 3 2 2 2 2 2 2 3 3 2 3 3 3 2 3 3 2 2 2 2 1 1 1
4 4 4 5 6 6 6 6 6 6 6 6 6 6 5 4 4 5 6 5 4 2 3 3 3 3 3 3 3 3 2 2 3 2 3 3 3 3 2 2 2 2 2
Wind_Direction
45 40 28 29 41 45 52 61 65 67 66 65 66 66 65 62 62 64 62 61 64 65 68 69 67 68 70 69 71 71 72 74 77 76 72 72 75 78 78 75 76 78 86
52 54 37 34 43 47 51 59 66 68 66 64 65 65 66 65 63 61 61 62 68 68 69 72 71 69 71 70 70 71 74 79 84 84 79 73 76 78 75 72 77 83 87
52 60 44 37 41 46 48 55 64 66 66 63 62 61 61 60 60 55 56 63 68 68 68 69 71 72 72 70 70 72 76 78 85 92 89 87 88 86 82 81 85 88 89
52 58 45 39 40 44 47 49 59 63 64 62 58 57 56 55 54 52 57 61 63 63 64 67 69 70 71 71 68 67 68 59 57 66 83 94 93 96 91 88 88 92 92
50 56 45 42 41 44 47 48 52 57 58 57 54 53 50 50 51 53 57 60 63 64 65 66 69 69 69 70 66 58 46 23 24 22 66 78 81 99 97 94 92 95 94
48 51 46 40 41 42 44 47 48 50 56 55 51 48 46 45 46 50 54 57 61 61 63 64 68 69 66 66 60 44 19 10 2 30 70 79 88 102 102 99 100 100 99
45 48 48 39 40 41 40 42 44 43 44 51 50 48 44 44 46 48 55 56 58 60 63 63 65 67 62 56 50 30 9 358 1 43 64 72 91 100 103 106 109 107 105
44 44 49 40 38 36 37 36 36 39 36 37 47 46 43 44 49 47 50 55 55 56 59 60 62 63 58 48 35 15 3 359 16 43 67 81 100 102 102 105 111 110 109
44 38 33 29 34 33 30 30 29 29 32 28 32 40 39 41 47 49 45 48 52 52 52 53 58 61 54 43 27 7 358 354 3 9 63 79 104 111 109 107 106 109 112
42 35 30 24 20 21 25 27 24 23 25 27 26 29 33 42 47 48 43 40 44 48 49 49 52 53 46 31 13 355 345 346 9 11 48 83 96 112 113 110 108 106 112
31 25 23 22 16 7 11 21 16 20 20 21 21 22 30 41 58 61 44 37 37 40 43 44 44 39 27 16 352 334 330 346 19 22 47 89 98 109 113 111 112 110 113
21 18 19 14 11 7 7 12 4 10 16 11 11 15 356 12 29 41 50 37 32 30 35 36 31 35 17 4 344 342 343 356 11 32 74 93 96 109 117 117 120 119 118
22 19 15 9 6 7 3 3 2 356 0 5 1 360 357 12 28 37 50 39 41 38 31 30 28 5 358 358 352 343 343 353 21 26 73 95 98 111 135 137 147 142 131
25 19 11 8 5 2 2 357 4 359 353 359 355 356 2 9 12 17 30 1 13 22 6 340 317 353 351 343 345 342 341 350 15 26 75 98 109 121 151 161 151 153 153
21 15 7 5 5 359 355 355 5 357 351 353 351 352 356 5 3 2 3 360 343 357 358 340 328 333 325 313 322 332 349 351 358 6 53 75 120 152 169 171 164 162 162
15 10 3 2 2 359 359 355 352 350 351 349 348 349 353 357 351 355 6 360 341 336 326 308 307 310 294 305 316 322 324 327 306 325 25 60 86 165 171 168 167 163 163
10 9 3 359 1 359 357 352 350 348 355 352 349 343 349 351 345 350 6 357 336 335 339 326 324 336 316 327 326 325 329 320 304 292 280 217 203 169 156 174 181 179 175
9 10 6 0 358 356 352 342 343 346 351 350 350 344 350 347 348 343 357 340 330 338 348 336 348 340 328 323 321 319 319 309 304 281 268 224 182 171 175 174 183 182 185
9 8 8 2 359 352 345 341 344 346 347 347 352 351 344 343 341 340 329 332 334 342 350 342 353 349 334 327 324 313 306 292 289 285 281 248 184 169 167 173 179 189 196
10 9 9 5 360 351 347 344 347 346 344 345 347 347 343 338 336 335 321 333 338 343 343 353 351 347 331 316 311 320 306 285 275 263 249 265 271 202 170 163 175 194 200
10 8 8 7 360 358 354 349 345 341 335 336 340 343 340 333 327 332 325 312 325 319 324 340 355 340 328 332 322 315 302 284 263 259 255 244 242 226 193 187 184 184 201
9 3 5 5 358 356 353 341 327 323 323 327 330 335 338 330 324 327 324 304 298 296 319 336 351 331 305 322 314 300 300 306 308 292 281 258 248 247 237 236 198 198 192
9 1 360 359 356 355 350 340 339 340 331 339 338 332 329 327 320 315 313 300 270 264 260 271 264 319 276 284 274 232 224 243 303 276 261 250 246 265 260 254 261 234 199
7 1 357 356 356 354 350 347 347 345 336 327 322 319 318 319 317 310 311 303 273 261 256 254 277 283 242 262 278 274 268 247 235 281 291 278 263 254 243 249 256 268 250
8 2 355 355 354 353 352 348 343 335 325 319 323 320 320 312 313 315 311 301 280 262 253 253 258 260 254 258 261 276 285 283 247 241 265 273 284 274 251 238 237 248 247
1 360 354 355 352 352 351 349 345 336 334 331 330 326 326 319 309 313 319 305 286 271 256 246 241 245 254 265 267 262 258 253 261 256 254 252 263 276 277 268 247 240 241